FFM2562 WBKK-WBGG

Flight info

Callsign FFM2562
Flight time 1h 5m
Altitude 32000
Route DULIM2G DULIM M646 BRU G580 PILAX
Aircraft B738/M-SDE2E3FGHIRWXY/LB1

Departure

Time 2026-05-05 16:55
Airport Kota Kinabalu International Airport (WBKK)

Arrival

Time 2026-05-05 18:00
Airport Kuching International Airport (WBGG)
Time Latitude Longitude Altitude Speed Heading
2026-05-05 16:35 5.92602 116.05032 21 ft 0 kts 113°
2026-05-05 16:48 5.92611 116.05009 21 ft 4 kts 104°
2026-05-05 16:48 5.92615 116.04982 21 ft 4 kts 85°
2026-05-05 16:49 5.92607 116.04960 23 ft 4 kts 36°
2026-05-05 16:49 5.92602 116.04956 22 ft 1 kts 22°
2026-05-05 16:50 5.92606 116.04958 23 ft 5 kts 20°
2026-05-05 16:50 5.92655 116.04905 22 ft 15 kts 294°
2026-05-05 16:50 5.92740 116.04891 20 ft 14 kts 26°
2026-05-05 16:51 5.92830 116.04929 20 ft 14 kts 22°
2026-05-05 16:51 5.92919 116.04966 20 ft 16 kts 23°
2026-05-05 16:51 5.93033 116.05015 22 ft 18 kts 23°
2026-05-05 16:51 5.93148 116.05064 23 ft 18 kts 23°
2026-05-05 16:52 5.93260 116.05113 21 ft 17 kts 23°
2026-05-05 16:52 5.93371 116.05158 21 ft 18 kts 22°
2026-05-05 16:52 5.93511 116.05216 22 ft 25 kts 24°
2026-05-05 16:52 5.93694 116.05293 21 ft 32 kts 22°
2026-05-05 16:53 5.93905 116.05383 23 ft 33 kts 23°
2026-05-05 16:53 5.94110 116.05469 23 ft 31 kts 21°
2026-05-05 16:53 5.94229 116.05454 21 ft 13 kts 293°
2026-05-05 16:53 5.94260 116.05373 22 ft 12 kts 276°
2026-05-05 16:54 5.94199 116.05321 21 ft 15 kts 201°
2026-05-05 16:54 5.93910 116.05201 21 ft 86 kts 203°
2026-05-05 16:54 5.93113 116.04865 21 ft 160 kts 202°
2026-05-05 16:54 5.91939 116.04367 407 ft 195 kts 202°
2026-05-05 16:55 5.90663 116.03816 1384 ft 200 kts 202°
2026-05-05 16:55 5.89357 116.03252 2127 ft 209 kts 203°
2026-05-05 16:55 5.87998 116.02659 2691 ft 215 kts 203°
2026-05-05 16:55 5.86635 116.02057 3275 ft 219 kts 205°
2026-05-05 16:56 5.85381 116.01081 3511 ft 240 kts 227°
2026-05-05 16:56 5.84307 115.99745 3995 ft 250 kts 232°
2026-05-05 16:56 5.83232 115.98306 4325 ft 267 kts 232°
2026-05-05 16:56 5.82090 115.96774 4892 ft 277 kts 232°
2026-05-05 16:57 5.80927 115.95226 5740 ft 278 kts 231°
2026-05-05 16:57 5.79746 115.93668 6503 ft 283 kts 231°
2026-05-05 16:57 5.78541 115.92089 7222 ft 287 kts 231°
2026-05-05 16:57 5.77316 115.90493 7960 ft 290 kts 231°
2026-05-05 16:58 5.76074 115.88878 8685 ft 294 kts 231°
2026-05-05 16:58 5.74814 115.87243 9418 ft 298 kts 231°
2026-05-05 16:58 5.73552 115.85606 10085 ft 302 kts 231°
2026-05-05 16:58 5.72232 115.83897 10424 ft 320 kts 231°
2026-05-05 16:59 5.70819 115.82069 10583 ft 342 kts 231°
2026-05-05 16:59 5.69315 115.80124 10730 ft 363 kts 231°
2026-05-05 16:59 5.67660 115.78131 10920 ft 379 kts 227°
2026-05-05 16:59 5.65862 115.76170 11366 ft 385 kts 226°
2026-05-05 17:00 5.64008 115.74204 11938 ft 388 kts 225°
2026-05-05 17:00 5.62147 115.72232 12524 ft 390 kts 226°
2026-05-05 17:00 5.60276 115.70237 13069 ft 394 kts 226°
2026-05-05 17:00 5.58400 115.68220 13607 ft 397 kts 226°
2026-05-05 17:01 5.56509 115.66178 14073 ft 401 kts 226°
2026-05-05 17:01 5.54605 115.64115 14542 ft 404 kts 226°
2026-05-05 17:01 5.52691 115.62040 15008 ft 407 kts 226°
2026-05-05 17:01 5.50763 115.59950 15473 ft 410 kts 226°
2026-05-05 17:02 5.48822 115.57844 15918 ft 413 kts 226°
2026-05-05 17:02 5.46864 115.55722 16368 ft 416 kts 226°
2026-05-05 17:02 5.44915 115.53610 16792 ft 419 kts 226°
2026-05-05 17:02 5.42951 115.51436 17216 ft 422 kts 227°
2026-05-05 17:03 5.40997 115.49225 17654 ft 425 kts 227°
2026-05-05 17:03 5.39035 115.46988 18073 ft 428 kts 227°
2026-05-05 17:03 5.37066 115.44740 18434 ft 430 kts 227°
2026-05-05 17:03 5.35085 115.42482 18803 ft 432 kts 227°
2026-05-05 17:04 5.33087 115.40210 19178 ft 434 kts 227°
2026-05-05 17:04 5.31083 115.37935 19549 ft 436 kts 227°
2026-05-05 17:04 5.29072 115.35655 19908 ft 438 kts 227°
2026-05-05 17:04 5.27042 115.33355 20257 ft 440 kts 227°
2026-05-05 17:05 5.25012 115.31055 20593 ft 442 kts 227°
2026-05-05 17:05 5.22965 115.28738 20924 ft 444 kts 227°
2026-05-05 17:05 5.20915 115.26416 21250 ft 446 kts 227°
2026-05-05 17:05 5.18848 115.24075 21569 ft 448 kts 227°
2026-05-05 17:06 5.16778 115.21732 21875 ft 450 kts 227°
2026-05-05 17:06 5.14727 115.19410 22168 ft 452 kts 227°
2026-05-05 17:06 5.12635 115.17042 22467 ft 454 kts 227°
2026-05-05 17:06 5.10542 115.14673 22747 ft 456 kts 227°
2026-05-05 17:07 5.08427 115.12279 23027 ft 458 kts 227°
2026-05-05 17:07 5.07003 115.10667 23215 ft 459 kts 227°
2026-05-05 17:07 5.04192 115.07486 23556 ft 461 kts 227°
2026-05-05 17:07 5.02775 115.05882 23708 ft 462 kts 227°
2026-05-05 17:08 5.00639 115.03465 23933 ft 464 kts 227°
2026-05-05 17:08 4.98495 115.01039 24159 ft 466 kts 227°
2026-05-05 17:08 4.96340 114.98601 24384 ft 467 kts 227°
2026-05-05 17:08 4.94184 114.96161 24595 ft 468 kts 227°
2026-05-05 17:09 4.92014 114.93707 24808 ft 470 kts 227°
2026-05-05 17:09 4.89845 114.91254 25012 ft 471 kts 227°
2026-05-05 17:09 4.87674 114.88768 25214 ft 473 kts 229°
2026-05-05 17:09 4.85741 114.86083 25400 ft 476 kts 236°
2026-05-05 17:10 4.83990 114.83311 25602 ft 477 kts 237°
2026-05-05 17:10 4.82250 114.80474 25785 ft 479 kts 237°
2026-05-05 17:10 4.80508 114.77618 25964 ft 481 kts 237°
2026-05-05 17:10 4.78752 114.74759 26150 ft 482 kts 237°
2026-05-05 17:11 4.76981 114.71901 26334 ft 483 kts 237°
2026-05-05 17:11 4.75193 114.69040 26522 ft 484 kts 237°
2026-05-05 17:11 4.73397 114.66179 26679 ft 486 kts 237°
2026-05-05 17:11 4.71590 114.63309 26843 ft 487 kts 237°
2026-05-05 17:12 4.69775 114.60429 27018 ft 489 kts 237°
2026-05-05 17:12 4.67958 114.57547 27180 ft 490 kts 237°
2026-05-05 17:12 4.66135 114.54654 27343 ft 492 kts 237°
2026-05-05 17:12 4.64304 114.51748 27500 ft 493 kts 237°
2026-05-05 17:13 4.62471 114.48839 27646 ft 495 kts 237°
2026-05-05 17:13 4.60633 114.45920 27813 ft 495 kts 237°
2026-05-05 17:13 4.58793 114.42998 27982 ft 496 kts 237°
2026-05-05 17:13 4.56948 114.40070 28123 ft 498 kts 237°
2026-05-05 17:14 4.55099 114.37134 28267 ft 499 kts 237°
2026-05-05 17:14 4.53243 114.34190 28439 ft 499 kts 237°
2026-05-05 17:14 4.51385 114.31241 28675 ft 499 kts 237°
2026-05-05 17:14 4.49533 114.28302 28922 ft 498 kts 237°
2026-05-05 17:15 4.47688 114.25375 29165 ft 497 kts 237°
2026-05-05 17:15 4.45866 114.22485 29389 ft 497 kts 237°
2026-05-05 17:15 4.43996 114.19519 29614 ft 496 kts 237°
2026-05-05 17:15 4.42154 114.16598 29864 ft 496 kts 237°
2026-05-05 17:16 4.40313 114.13678 30095 ft 495 kts 237°
2026-05-05 17:16 4.38480 114.10771 30321 ft 494 kts 237°
2026-05-05 17:16 4.36671 114.07902 30539 ft 493 kts 237°
2026-05-05 17:16 4.34843 114.05004 30773 ft 492 kts 237°
2026-05-05 17:17 4.33014 114.02104 31020 ft 490 kts 237°
2026-05-05 17:17 4.31190 113.99213 31257 ft 490 kts 237°
2026-05-05 17:17 4.29315 113.96378 31483 ft 488 kts 234°
2026-05-05 17:17 4.27310 113.93626 31709 ft 488 kts 232°
2026-05-05 17:18 4.25260 113.90924 31859 ft 488 kts 231°
2026-05-05 17:18 4.23180 113.88220 31842 ft 489 kts 231°
2026-05-05 17:18 4.19045 113.82828 31854 ft 487 kts 232°
2026-05-05 17:19 4.14961 113.77438 31855 ft 484 kts 232°
2026-05-05 17:19 4.10905 113.72053 31859 ft 483 kts 232°
2026-05-05 17:20 4.06885 113.66711 31859 ft 483 kts 232°
2026-05-05 17:20 4.02839 113.61338 31859 ft 483 kts 232°
2026-05-05 17:21 3.98790 113.55964 31854 ft 484 kts 232°
2026-05-05 17:22 3.92693 113.47874 31860 ft 486 kts 232°
2026-05-05 17:22 3.88643 113.42502 31860 ft 487 kts 232°
2026-05-05 17:23 3.84561 113.37088 31860 ft 488 kts 232°
2026-05-05 17:23 3.80470 113.31663 31859 ft 488 kts 232°
2026-05-05 17:24 3.76379 113.26239 31850 ft 488 kts 232°
2026-05-05 17:24 3.72283 113.20809 31847 ft 488 kts 232°
2026-05-05 17:25 3.68189 113.15383 31856 ft 488 kts 232°
2026-05-05 17:25 3.64103 113.09968 31847 ft 487 kts 232°
2026-05-05 17:26 3.60019 113.04557 31845 ft 486 kts 232°
2026-05-05 17:26 3.55946 112.99161 31855 ft 485 kts 232°
2026-05-05 17:27 3.51875 112.93768 31857 ft 485 kts 232°
2026-05-05 17:27 3.47838 112.88420 31852 ft 484 kts 232°
2026-05-05 17:28 3.43785 112.83050 31849 ft 484 kts 233°
2026-05-05 17:28 3.39920 112.77536 31847 ft 484 kts 235°
2026-05-05 17:29 3.36160 112.71946 31850 ft 484 kts 235°
2026-05-05 17:29 3.32380 112.66379 31858 ft 484 kts 234°
2026-05-05 17:30 3.28572 112.60823 31857 ft 484 kts 234°
2026-05-05 17:30 3.24753 112.55266 31853 ft 485 kts 234°
2026-05-05 17:31 3.20932 112.49702 31857 ft 485 kts 234°
2026-05-05 17:31 3.17110 112.44134 31855 ft 485 kts 234°
2026-05-05 17:32 3.13281 112.38557 31855 ft 486 kts 234°
2026-05-05 17:32 3.09480 112.33020 31850 ft 486 kts 234°
2026-05-05 17:33 3.05651 112.27438 31850 ft 486 kts 234°
2026-05-05 17:33 3.01820 112.21852 31855 ft 487 kts 234°
2026-05-05 17:34 2.97982 112.16257 31847 ft 487 kts 234°
2026-05-05 17:34 2.94149 112.10670 31849 ft 487 kts 234°
2026-05-05 17:35 2.90310 112.05075 31854 ft 487 kts 234°
2026-05-05 17:35 2.86097 111.99786 31857 ft 486 kts 227°
2026-05-05 17:36 2.81526 111.94801 31846 ft 486 kts 226°
2026-05-05 17:36 2.76974 111.89845 31855 ft 486 kts 226°
2026-05-05 17:37 2.72443 111.84830 31854 ft 486 kts 227°
2026-05-05 17:37 2.67921 111.79789 31862 ft 486 kts 227°
2026-05-05 17:38 2.63400 111.74745 31825 ft 487 kts 227°
2026-05-05 17:38 2.61120 111.72204 31146 ft 494 kts 227°
2026-05-05 17:38 2.58832 111.69654 30451 ft 492 kts 227°
2026-05-05 17:38 2.56547 111.67109 29609 ft 494 kts 227°
2026-05-05 17:39 2.54244 111.64544 28674 ft 495 kts 227°
2026-05-05 17:39 2.51941 111.61979 27763 ft 496 kts 227°
2026-05-05 17:39 2.49631 111.59406 26831 ft 497 kts 227°
2026-05-05 17:39 2.47319 111.56831 25856 ft 500 kts 227°
2026-05-05 17:40 2.45007 111.54256 25166 ft 495 kts 227°
2026-05-05 17:40 2.42717 111.51705 24453 ft 491 kts 227°
2026-05-05 17:40 2.40437 111.49165 23752 ft 488 kts 227°
2026-05-05 17:40 2.38173 111.46644 22976 ft 485 kts 227°
2026-05-05 17:41 2.35933 111.44149 22230 ft 480 kts 227°
2026-05-05 17:41 2.33747 111.41715 21542 ft 474 kts 227°
2026-05-05 17:41 2.31555 111.39270 20862 ft 469 kts 228°
2026-05-05 17:41 2.29469 111.36778 20094 ft 466 kts 231°
2026-05-05 17:42 2.27478 111.34232 19427 ft 462 kts 232°
2026-05-05 17:42 2.25551 111.31696 18848 ft 455 kts 232°
2026-05-05 17:42 2.23640 111.29170 18212 ft 452 kts 232°
2026-05-05 17:42 2.21751 111.26684 17367 ft 451 kts 232°
2026-05-05 17:43 2.19859 111.24212 16934 ft 440 kts 232°
2026-05-05 17:43 2.17993 111.21788 16057 ft 441 kts 232°
2026-05-05 17:43 2.16141 111.19391 15562 ft 431 kts 232°
2026-05-05 17:43 2.14297 111.17008 14850 ft 431 kts 232°
2026-05-05 17:44 2.12483 111.14667 14195 ft 427 kts 232°
2026-05-05 17:44 2.10671 111.12328 13737 ft 420 kts 232°
2026-05-05 17:44 2.08887 111.10026 12852 ft 421 kts 232°
2026-05-05 17:44 2.07114 111.07736 12484 ft 409 kts 232°
2026-05-05 17:45 2.05362 111.05474 11641 ft 412 kts 232°
2026-05-05 17:45 2.03636 111.03246 11319 ft 400 kts 232°
2026-05-05 17:45 2.01977 111.01103 11027 ft 389 kts 232°
2026-05-05 17:45 2.00351 110.99004 10825 ft 376 kts 232°
2026-05-05 17:46 1.98775 110.96968 10661 ft 363 kts 232°
2026-05-05 17:46 1.97252 110.95001 10504 ft 352 kts 232°
2026-05-05 17:46 1.95774 110.93094 10357 ft 341 kts 232°
2026-05-05 17:46 1.94344 110.91246 10214 ft 331 kts 232°
2026-05-05 17:47 1.92954 110.89452 10077 ft 321 kts 232°
2026-05-05 17:47 1.91621 110.87730 9926 ft 305 kts 232°
2026-05-05 17:47 1.90351 110.86091 9748 ft 292 kts 231°
2026-05-05 17:47 1.89127 110.84510 9447 ft 284 kts 231°
2026-05-05 17:48 1.87933 110.82970 9158 ft 276 kts 231°
2026-05-05 17:48 1.86771 110.81471 8882 ft 269 kts 231°
2026-05-05 17:48 1.85628 110.80017 8613 ft 262 kts 227°
2026-05-05 17:48 1.84209 110.78917 8397 ft 257 kts 210°
2026-05-05 17:49 1.82684 110.78018 8149 ft 260 kts 209°
2026-05-05 17:49 1.81086 110.77087 7905 ft 273 kts 210°
2026-05-05 17:49 1.79425 110.76114 7606 ft 277 kts 210°
2026-05-05 17:49 1.77783 110.75146 7305 ft 270 kts 210°
2026-05-05 17:50 1.76185 110.74200 7025 ft 264 kts 210°
2026-05-05 17:50 1.74628 110.73274 6790 ft 256 kts 210°
2026-05-05 17:50 1.73129 110.72381 6604 ft 249 kts 211°
2026-05-05 17:50 1.71638 110.71492 6373 ft 250 kts 211°
2026-05-05 17:51 1.70127 110.70590 6134 ft 258 kts 211°
2026-05-05 17:51 1.68556 110.69652 5870 ft 266 kts 211°
2026-05-05 17:51 1.66973 110.68706 5582 ft 262 kts 211°
2026-05-05 17:51 1.65430 110.67784 5298 ft 255 kts 211°
2026-05-05 17:52 1.63929 110.66887 5036 ft 248 kts 210°
2026-05-05 17:52 1.62466 110.66013 4779 ft 242 kts 210°
2026-05-05 17:52 1.61025 110.65152 4542 ft 242 kts 211°
2026-05-05 17:52 1.59827 110.63981 4407 ft 245 kts 244°
2026-05-05 17:53 1.59334 110.62391 4316 ft 235 kts 253°
2026-05-05 17:53 1.58833 110.60887 4194 ft 221 kts 249°
2026-05-05 17:53 1.58297 110.59496 4100 ft 207 kts 248°
2026-05-05 17:53 1.57789 110.58211 4000 ft 193 kts 247°
2026-05-05 17:54 1.57300 110.56976 3931 ft 189 kts 247°
2026-05-05 17:54 1.56838 110.55805 3814 ft 178 kts 247°
2026-05-05 17:54 1.56394 110.54680 3633 ft 173 kts 247°
2026-05-05 17:54 1.55954 110.53566 3426 ft 171 kts 247°
2026-05-05 17:55 1.55517 110.52460 3214 ft 171 kts 247°
2026-05-05 17:55 1.55082 110.51359 3004 ft 170 kts 247°
2026-05-05 17:55 1.54649 110.50263 2775 ft 167 kts 247°
2026-05-05 17:55 1.54243 110.49233 2598 ft 152 kts 247°
2026-05-05 17:56 1.53864 110.48272 2386 ft 146 kts 248°
2026-05-05 17:56 1.53490 110.47324 2204 ft 148 kts 248°
2026-05-05 17:56 1.53111 110.46367 2014 ft 148 kts 248°
2026-05-05 17:56 1.52735 110.45413 1825 ft 147 kts 248°
2026-05-05 17:57 1.52488 110.44786 1702 ft 146 kts 249°
2026-05-05 17:57 1.52117 110.43846 1515 ft 145 kts 249°
2026-05-05 17:57 1.51746 110.42905 1333 ft 145 kts 249°
2026-05-05 17:57 1.51375 110.41966 1140 ft 145 kts 249°
2026-05-05 17:58 1.51005 110.41030 959 ft 145 kts 249°
2026-05-05 17:58 1.50638 110.40095 768 ft 145 kts 249°
2026-05-05 17:58 1.50264 110.39164 591 ft 144 kts 248°
2026-05-05 17:58 1.49884 110.38240 395 ft 144 kts 247°
2026-05-05 17:59 1.49524 110.37309 216 ft 142 kts 250°
2026-05-05 17:59 1.49173 110.36401 53 ft 137 kts 247°
2026-05-05 17:59 1.48862 110.35616 67 ft 107 kts 248°
2026-05-05 17:59 1.48635 110.35043 74 ft 64 kts 249°
2026-05-05 18:00 1.48608 110.34783 72 ft 9 kts 279°
2026-05-05 18:00 1.48618 110.34722 67 ft 9 kts 279°
2026-05-05 18:00 1.48628 110.34662 75 ft 9 kts 279°
2026-05-05 18:00 1.48641 110.34604 74 ft 9 kts 301°
2026-05-05 18:01 1.48700 110.34553 77 ft 12 kts 314°
2026-05-05 18:01 1.48697 110.34520 77 ft 5 kts 242°
2026-05-05 18:01 1.48669 110.34468 72 ft 10 kts 245°
2026-05-05 18:01 1.48642 110.34404 71 ft 10 kts 251°
2026-05-05 18:02 1.48618 110.34342 67 ft 10 kts 247°
2026-05-05 18:02 1.48593 110.34281 77 ft 9 kts 251°
2026-05-05 18:02 1.48608 110.34256 70 ft 3 kts 341°
2026-05-05 18:02 1.48633 110.34247 75 ft 4 kts 339°
2026-05-05 18:03 1.48654 110.34238 71 ft 0 kts 338°
2026-05-05 18:03 1.48655 110.34238 72 ft 0 kts 338°